Location: Bonn
(50.7330°N, 7.1000°E)
Time: 07:46:41
(UTC+02:00)

Iridium 67 - Visible Passes

Search period start: 23 July 2014 00:00
Search period end: 02 August 2014 00:00
Orbit: 776 x 779 km, 86.4° (Epoch: 22 July)

Date Brightness Start Highest point End Pass type
(mag) Time Alt. Az. Time Alt. Az. Time Alt. Az.
23 Jul 6.2 01:33:19 28° SE 01:35:35 44° E 01:40:31 10° NNE visible
23 Jul 6.7 03:13:47 19° WSW 03:16:29 30° WNW 03:21:03 10° NNW visible
24 Jul 7.0 00:59:57 19° ESE 01:02:17 27° E 01:06:35 10° NNE visible
24 Jul 6.0 02:40:25 29° SW 02:42:44 49° W 02:47:49 10° N visible
25 Jul 7.5 00:26:34 12° ESE 00:29:05 16° ENE 00:32:14 10° NE visible
25 Jul 5.5 02:07:02 38° S 02:09:07 82° W 02:14:22 10° N visible
25 Jul 7.7 03:48:06 10° W 03:50:45 14° WNW 03:53:25 10° NW visible
26 Jul 5.8 01:33:39 36° SSE 01:35:37 60° E 01:40:45 10° N visible
26 Jul 7.1 03:14:08 16° WSW 03:16:47 22° WNW 03:20:51 10° NNW visible
27 Jul 6.5 01:00:16 27° SE 01:02:14 36° E 01:06:58 10° NNE visible
27 Jul 6.5 02:40:44 25° WSW 02:42:57 36° WNW 02:47:46 10° N visible
28 Jul 7.2 00:26:52 17° ESE 00:28:58 22° ENE 00:32:54 10° NNE visible
28 Jul 5.8 02:07:21 37° SW 02:09:15 60° W 02:14:26 10° N visible
28 Jul 7.9 03:50:52 10° WNW 03:51:11 10° WNW 03:51:30 10° WNW visible
28 Jul 7.7 23:53:28 10° E 23:55:50 13° ENE 23:58:13 10° NE visible
29 Jul 5.5 01:33:56 43° S 01:35:41 82° E 01:40:56 10° N visible
29 Jul 7.5 03:14:25 12° WSW 03:17:08 17° WNW 03:20:28 10° NNW visible
30 Jul 6.0 01:00:32 35° SE 01:02:14 49° E 01:07:15 10° NNE visible
30 Jul 6.9 02:41:00 20° WSW 02:43:13 27° WNW 02:47:38 10° NNW visible
31 Jul 6.7 00:27:07 24° ESE 00:28:54 29° E 00:33:21 10° NNE visible
31 Jul 6.2 02:07:35 32° SW 02:09:26 44° W 02:14:26 10° N visible
31 Jul 7.3 23:53:42 15° ESE 23:55:41 18° ENE 23:59:07 10° NE visible
01 Aug 5.5 01:34:10 45° SSW 01:35:47 74° W 01:41:02 10° N visible
01 Aug 7.8 03:15:21 10° W 03:17:31 13° WNW 03:19:42 10° NW visible
01 Aug 7.8 23:21:29 10° E 23:22:35 11° ENE 23:23:41 10° ENE visible
